CW6988 Weather Reports


Display with metric or nautical units.
time (UTC)temp
F
wind
direction
speed
MPH
gust
MPH
rain 1hr
in
rain 24hr
in
rain mn
in
humidity
%
barometer
mb
20260505181617 76 360 4.0 13.0 0.00 0.00 0.00 40 1013.8
20260505181035 76 352 6.0 13.0 0.00 0.00 0.00 41 1013.7
20260505180531 75 12 4.0 12.0 0.00 0.00 0.00 42 1013.7
20260505180148 75 24 8.0 12.0 0.00 0.00 0.00 42 1013.6
20260505175524 75 13 7.0 13.0 0.00 0.00 0.00 41 1013.6
20260505175039 75 352 7.0 14.0 0.00 0.00 0.00 43 1013.7
20260505174645 74 348 9.0 14.0 0.00 0.00 0.00 43 1013.7
20260505174027 74 344 9.0 14.0 0.00 0.00 0.00 43 1013.7
20260505173529 74 335 8.0 14.0 0.00 0.00 0.00 43 1013.7
20260505173109 73 25 8.0 14.0 0.00 0.00 0.00 44 1013.7
20260505172530 73 19 5.0 13.0 0.00 0.00 0.00 46 1013.7
20260505172040 73 40 6.0 13.0 0.00 0.00 0.00 45 1013.8
20260505171644 72 346 9.0 13.0 0.00 0.00 0.00 46 1013.7
20260505171045 71 58 5.0 13.0 0.00 0.00 0.00 47 1013.6
20260505170528 71 19 7.0 13.0 0.00 0.00 0.00 47 1013.5
20260505170202 71 17 5.0 14.0 0.00 0.00 0.00 48 1013.6
20260505165521 71 43 10.0 16.0 0.00 0.00 0.00 48 1013.6
20260505165031 70 20 9.0 15.0 0.00 0.00 0.00 48 1013.6
20260505164642 70 352 10.0 15.0 0.00 0.00 0.00 49 1013.7
20260505164039 70 17 9.0 14.0 0.00 0.00 0.00 49 1013.7
20260505163523 69 12 10.0 14.0 0.00 0.00 0.00 50 1013.7
20260505163138 69 11 9.0 14.0 0.00 0.00 0.00 50 1013.7
20260505162522 69 10 10.0 16.0 0.00 0.00 0.00 50 1013.6
20260505162023 69 19 10.0 16.0 0.00 0.00 0.00 51 1013.7
20260505161643 68 5 9.0 13.0 0.00 0.00 0.00 51 1013.5
20260505161022 67 10 11.0 13.0 0.00 0.00 0.00 52 1013.4
20260505160539 66 5 10.0 13.0 0.00 0.00 0.00 53 1013.3
20260505160108 66 50 4.0 12.0 0.00 0.00 0.00 54 1013.3
20260505153148 63 46 7.0 13.0 0.00 0.00 0.00 56 1013.1
20260505152542 63 82 8.0 13.0 0.00 0.00 0.00 56 1013.0
20260505152028 63 66 8.0 12.0 0.00 0.00 0.00 56 1013.0
20260505151640 62 95 6.0 14.0 0.00 0.00 0.00 56 1013.1
20260505151028 62 64 9.0 14.0 0.00 0.00 0.00 56 1013.0
20260505150527 62 78 9.0 14.0 0.00 0.00 0.00 56 1012.8
20260505150144 62 67 8.0 15.0 0.00 0.00 0.00 57 1012.7
20260505140543 56 32 6.0 11.0 0.00 0.00 0.00 75 1011.9
20260505140201 55 72 5.0 10.0 0.00 0.00 0.00 76 1011.9
20260505130158 53 50 4.0 11.0 0.00 0.00 0.00 80 1011.2
20260505125021 52 35 6.0 10.0 0.00 0.00 0.00 81 1011.2
20260505124621 52 91 6.0 11.0 0.00 0.00 0.00 81 1011.1
20260505124034 52 45 6.0 12.0 0.00 0.00 0.00 81 1011.0
20260505123535 52 41 5.0 12.0 0.00 0.00 0.00 81 1011.0
20260505123131 52 28 4.0 10.0 0.00 0.00 0.00 81 1011.0
20260505122522 51 61 5.0 10.0 0.00 0.00 0.00 81 1010.9
20260505122022 51 54 4.0 11.0 0.00 0.00 0.00 81 1010.8
20260505121647 52 52 6.0 11.0 0.00 0.00 0.00 81 1010.8
20260505121026 52 75 5.0 12.0 0.00 0.00 0.00 80 1010.7
20260505120538 51 61 7.0 12.0 0.00 0.00 0.00 80 1010.7
20260505120210 52 60 6.0 10.0 0.00 0.00 0.00 79 1010.7
20260505115546 52 67 4.0 11.0 0.00 0.00 0.00 78 1010.7
20260505115025 52 67 6.0 11.0 0.00 0.00 0.00 77 1010.6
20260505114702 53 62 7.0 12.0 0.00 0.00 0.00 77 1010.6
20260505114024 53 76 7.0 12.0 0.00 0.00 0.00 76 1010.5
20260505113534 53 57 6.0 12.0 0.00 0.00 0.00 76 1010.5
20260505113158 53 44 7.0 11.0 0.00 0.00 0.00 76 1010.5
20260505112526 53 59 7.0 11.0 0.00 0.00 0.00 75 1010.4
20260505112025 53 47 6.0 10.0 0.00 0.00 0.00 75 1010.3
20260505111709 54 47 6.0 10.0 0.00 0.00 0.00 75 1010.3
20260505111024 54 54 6.0 10.0 0.00 0.00 0.00 74 1010.2
20260505110535 54 53 7.0 10.0 0.00 0.00 0.00 75 1010.2
20260505110208 54 38 5.0 9.0 0.00 0.00 0.00 75 1010.3
20260505102030 55 66 4.0 7.0 0.00 0.00 0.00 74 1009.8
20260505101649 55 59 3.0 6.0 0.00 0.00 0.00 75 1009.8
20260505101027 55 49 4.0 6.0 0.00 0.00 0.00 76 1009.8
20260505100527 55 57 1.0 4.0 0.00 0.00 0.00 76 1009.8
20260505100211 55 360 0.0 6.0 0.00 0.00 0.00 76 1009.6
20260505095546 55 36 2.0 6.0 0.00 0.00 0.00 75 1009.6
20260505095030 55 43 2.0 6.0 0.00 0.00 0.00 75 1009.5
20260505094637 56 57 3.0 6.0 0.00 0.00 0.00 74 1009.5
20260505094024 56 66 2.0 6.0 0.00 0.00 0.00 74 1009.4
20260505093543 56 67 3.0 6.0 0.00 0.00 0.00 74 1009.2
20260505093151 56 59 3.0 6.0 0.00 0.00 0.00 74 1009.2
20260505092523 57 50 3.0 6.0 0.00 0.00 0.00 74 1009.2
20260505092041 57 61 2.0 4.0 0.00 0.00 0.00 74 1009.2
20260505091610 57 57 0.0 5.0 0.00 0.00 0.00 73 1009.2
20260505091042 57 58 3.0 7.0 0.00 0.00 0.00 73 1009.2
20260505090542 57 67 4.0 8.0 0.00 0.00 0.00 73 1009.2
20260505090216 58 69 4.0 8.0 0.00 0.00 0.00 74 1009.2
20260505085521 58 73 3.0 7.0 0.00 0.00 0.00 74 1009.2
20260505085037 58 69 3.0 5.0 0.00 0.00 0.00 74 1009.2
20260505084800 58 55 2.0 4.0 0.00 0.00 0.00 74 1009.2
20260505084027 58 27 2.0 6.0 0.00 0.00 0.00 74 1009.1
20260505083529 59 44 3.0 6.0 0.00 0.00 0.00 74 1009.0
20260505083147 59 34 3.0 6.0 0.00 0.00 0.00 72 1009.0
20260505082542 59 45 3.0 5.0 0.00 0.00 0.00 73 1009.1
20260505082034 59 65 2.0 9.0 0.00 0.00 0.00 73 1009.0
20260505081700 59 74 5.0 9.0 0.00 0.00 0.00 74 1008.8
20260505081027 59 118 2.0 6.0 0.00 0.00 0.00 73 1009.1
20260505080541 60 86 3.0 8.0 0.00 0.00 0.00 73 1008.9
20260505080211 60 80 4.0 9.0 0.00 0.00 0.00 72 1008.8
20260505075543 60 65 5.0 9.0 0.00 0.00 0.00 71 1008.7
20260505075022 61 78 4.0 8.0 0.00 0.00 0.00 70 1008.7
20260505074709 62 81 3.0 7.0 0.00 0.00 0.00 69 1008.5
20260505074028 62 58 4.0 7.0 0.00 0.00 0.00 67 1008.6
20260505073535 62 34 3.0 9.0 0.00 0.00 0.00 67 1008.6
20260505073150 62 67 4.0 7.0 0.00 0.00 0.00 67 1008.6
20260505072533 62 41 4.0 9.0 0.00 0.00 0.00 67 1008.5
20260505072023 62 35 3.0 9.0 0.00 0.00 0.00 68 1008.5
20260505071620 62 36 5.0 10.0 0.00 0.00 0.00 68 1008.5
20260505071041 62 55 4.0 10.0 0.00 0.00 0.00 68 1008.4
20260505070520 62 58 5.0 9.0 0.00 0.00 0.00 67 1008.3
20260505070147 62 55 4.0 9.0 0.00 0.00 0.00 66 1008.2
20260505065528 62 62 5.0 9.0 0.00 0.00 0.00 66 1008.2
20260505065042 62 88 4.0 8.0 0.00 0.00 0.00 65 1008.0
20260505064658 62 68 5.0 9.0 0.00 0.00 0.00 65 1008.0
20260505064020 62 61 5.0 9.0 0.00 0.00 0.00 64 1007.9
20260505063517 63 65 4.0 7.0 0.00 0.00 0.00 64 1007.9
20260505063209 63 49 3.0 6.0 0.00 0.00 0.00 63 1007.9
20260505062528 63 62 3.0 6.0 0.00 0.00 0.00 62 1008.0
20260505062026 64 90 4.0 6.0 0.00 0.00 0.00 61 1007.9
20260505061628 64 71 2.0 5.0 0.00 0.00 0.00 60 1008.0
20260505061032 65 57 2.0 5.0 0.00 0.00 0.00 59 1008.0
20260505060538 65 43 2.0 4.0 0.00 0.00 0.00 57 1008.0
20260505060201 65 5 0.0 4.0 0.00 0.00 0.00 56 1007.9
20260505055534 65 49 2.0 4.0 0.00 0.00 0.00 56 1007.9
20260505055049 66 80 3.0 7.0 0.00 0.00 0.00 55 1007.8
20260505054657 66 46 3.0 7.0 0.00 0.00 0.00 55 1007.8
20260505054024 66 38 4.0 9.0 0.00 0.00 0.00 54 1007.8
20260505053520 66 56 5.0 9.0 0.00 0.00 0.00 54 1007.7
20260505053124 68 72 5.0 8.0 0.00 0.00 0.00 52 1007.8
20260505052529 68 22 3.0 5.0 0.00 0.00 0.00 50 1007.7
20260505052038 68 352 2.0 4.0 0.00 0.00 0.00 49 1007.8
20260505051706 68 333 2.0 4.0 0.00 0.00 0.00 48 1007.7
20260505051042 68 298 0.0 7.0 0.00 0.00 0.00 50 1007.8
20260505050539 67 298 3.0 7.0 0.00 0.00 0.00 51 1007.8
20260505050208 67 324 2.0 6.0 0.00 0.00 0.00 51 1007.7
20260505041658 71 62 3.0 12.0 0.00 0.00 0.00 45 1007.2
20260505041028 72 75 7.0 12.0 0.00 0.00 0.00 43 1007.2
20260505040526 72 14 4.0 9.0 0.00 0.00 0.00 38 1007.0
20260505040204 72 16 4.0 9.0 0.00 0.00 0.00 39 1007.1
20260505035543 71 36 3.0 6.0 0.00 0.00 0.00 39 1007.0
20260505035041 71 13 3.0 5.0 0.00 0.00 0.00 41 1006.8
20260505034643 71 5 0.0 0.0 0.00 0.00 0.00 42 1006.8
20260505034042 71 38 0.0 0.0 0.00 0.00 0.00 42 1006.8
20260505033524 71 51 0.0 0.0 0.00 0.00 0.00 42 1006.7
20260505033150 72 65 0.0 1.0 0.00 0.00 0.00 42 1006.7
20260505032541 73 65 0.0 1.0 0.00 0.00 0.00 41 1006.7
20260505032024 75 349 0.0 5.0 0.00 0.00 0.00 39 1006.7
20260505031650 77 338 1.0 5.0 0.00 0.00 0.00 35 1006.6
20260505031042 77 341 2.0 6.0 0.00 0.00 0.00 34 1006.6
20260505030522 76 337 3.0 6.0 0.00 0.00 0.00 34 1006.6
20260505030150 77 352 4.0 6.0 0.00 0.00 0.00 36 1006.6
20260505025530 77 360 2.0 4.0 0.00 0.00 0.00 38 1006.5
20260505025020 78 348 0.0 3.0 0.00 0.00 0.00 37 1006.3
20260505024625 79 347 2.0 4.0 0.00 0.00 0.00 33 1006.4
20260505024032 79 337 2.0 4.0 0.00 0.00 0.00 32 1006.5
20260505023522 80 346 2.0 4.0 0.00 0.00 0.00 32 1006.6
20260505023128 81 352 2.0 3.0 0.00 0.00 0.00 32 1006.6
20260505022520 82 14 1.0 3.0 0.00 0.00 0.00 31 1006.6
20260505022022 83 5 2.0 3.0 0.00 0.00 0.00 29 1006.6
20260505021659 84 18 1.0 4.0 0.00 0.00 0.00 26 1006.7
20260505021034 85 18 2.0 6.0 0.00 0.00 0.00 26 1006.7
20260505020534 86 13 3.0 9.0 0.00 0.00 0.00 24 1006.7
20260505020135 86 11 5.0 9.0 0.00 0.00 0.00 21 1006.8
20260505015521 87 24 6.0 9.0 0.00 0.00 0.00 21 1006.7
20260505015037 87 15 5.0 8.0 0.00 0.00 0.00 21 1006.8
20260505014650 87 11 5.0 8.0 0.00 0.00 0.00 22 1006.8
20260505014037 88 28 5.0 8.0 0.00 0.00 0.00 20 1006.9
20260505013527 88 10 2.0 9.0 0.00 0.00 0.00 20 1007.0
20260505013131 88 28 5.0 9.0 0.00 0.00 0.00 19 1007.1
20260505012526 88 17 5.0 12.0 0.00 0.00 0.00 19 1007.1
20260505012041 88 352 9.0 13.0 0.00 0.00 0.00 19 1007.1
20260505011610 88 9 10.0 16.0 0.00 0.00 0.00 19 1007.2
20260505011021 89 30 6.0 13.0 0.00 0.00 0.00 19 1007.2
20260505010525 89 12 8.0 12.0 0.00 0.00 0.00 19 1007.3
20260505010151 89 26 4.0 10.0 0.00 0.00 0.00 18 1007.2
20260505005520 89 360 7.0 12.0 0.00 0.00 0.00 18 1007.3
20260505005031 89 360 6.0 14.0 0.00 0.00 0.00 18 1007.4
20260505004643 89 348 9.0 14.0 0.00 0.00 0.00 18 1007.3
20260505004034 89 20 5.0 11.0 0.00 0.00 0.00 19 1007.3
20260505003538 89 336 6.0 12.0 0.00 0.00 0.00 18 1007.4
20260505003142 89 316 9.0 12.0 0.00 0.00 0.00 18 1007.4
20260505002526 89 344 5.0 12.0 0.00 0.00 0.00 17 1007.3
20260505002030 89 23 6.0 12.0 0.00 0.00 0.00 18 1007.5
20260505001638 89 352 6.0 14.0 0.00 0.00 0.00 20 1007.4
20260505001026 89 326 11.0 14.0 0.00 0.00 0.00 22 1007.3
20260505000527 89 325 10.0 15.0 0.00 0.00 0.00 19 1007.3
20260505000153 89 324 12.0 16.0 0.00 0.00 0.00 19 1007.4
20260504235522 89 337 10.0 16.0 0.00 0.00 0.00 18 1007.5
20260504235019 89 340 11.0 16.0 0.00 0.00 0.00 18 1007.4
20260504234638 89 320 10.0 18.0 0.00 0.00 0.00 17 1007.4
20260504234019 90 344 12.0 18.0 0.00 0.00 0.00 18 1007.6
20260504233515 90 340 11.0 16.0 0.00 0.00 0.00 17 1007.4
20260504233111 90 322 8.0 14.0 0.00 0.00 0.00 18 1007.4
20260504232523 90 328 8.0 15.0 0.00 0.00 0.00 16 1007.6
20260504232030 90 321 9.0 15.0 0.00 0.00 0.00 18 1007.6
20260504231643 89 291 7.0 13.0 0.00 0.00 0.00 17 1007.6
20260504231027 89 20 7.0 14.0 0.00 0.00 0.00 17 1007.7
20260504230521 89 347 10.0 16.0 0.00 0.00 0.00 16 1007.6
20260504230152 89 344 13.0 16.0 0.00 0.00 0.00 17 1007.7
20260504225542 90 319 12.0 16.0 0.00 0.00 0.00 17 1007.8
20260504225033 90 344 10.0 17.0 0.00 0.00 0.00 17 1007.7
20260504224636 90 352 12.0 21.0 0.00 0.00 0.00 17 1007.8
20260504224031 90 349 14.0 21.0 0.00 0.00 0.00 17 1007.8
20260504223522 90 23 10.0 16.0 0.00 0.00 0.00 17 1007.8
20260504223140 90 360 9.0 17.0 0.00 0.00 0.00 18 1007.8
20260504222528 90 352 7.0 13.0 0.00 0.00 0.00 17 1007.8
20260504222019 90 329 3.0 14.0 0.00 0.00 0.00 17 1007.9
20260504221650 90 352 5.0 14.0 0.00 0.00 0.00 18 1008.0
20260504221043 90 17 4.0 14.0 0.00 0.00 0.00 19 1008.0
20260504220522 90 344 9.0 14.0 0.00 0.00 0.00 18 1008.1
20260504220211 90 343 3.0 11.0 0.00 0.00 0.00 18 1008.1
20260504215534 90 279 5.0 11.0 0.00 0.00 0.00 19 1008.2
20260504215027 90 22 4.0 9.0 0.00 0.00 0.00 20 1008.1
20260504214658 90 18 0.0 9.0 0.00 0.00 0.00 19 1008.2
20260504214035 90 33 0.0 10.0 0.00 0.00 0.00 18 1008.2
20260504213544 90 292 5.0 11.0 0.00 0.00 0.00 18 1008.3
20260504213157 90 333 3.0 12.0 0.00 0.00 0.00 19 1008.4
20260504212531 90 330 5.0 12.0 0.00 0.00 0.00 19 1008.4
20260504212040 89 340 1.0 12.0 0.00 0.00 0.00 19 1008.4
20260504211647 89 343 1.0 10.0 0.00 0.00 0.00 20 1008.3
20260504211019 89 51 2.0 10.0 0.00 0.00 0.00 20 1008.5
20260504210530 89 343 0.0 6.0 0.00 0.00 0.00 20 1008.6
20260504210158 89 309 1.0 9.0 0.00 0.00 0.00 21 1008.7
20260504205543 88 317 3.0 9.0 0.00 0.00 0.00 21 1008.8
20260504205024 87 279 0.0 2.0 0.00 0.00 0.00 26 1009.0
20260504204657 87 105 0.0 4.0 0.00 0.00 0.00 28 1009.0
20260504204035 86 296 0.0 6.0 0.00 0.00 0.00 25 1009.0
20260504203520 86 49 2.0 8.0 0.00 0.00 0.00 28 1009.1
20260504203201 86 120 3.0 9.0 0.00 0.00 0.00 26 1009.2
20260504202531 86 90 4.0 12.0 0.00 0.00 0.00 31 1009.2
20260504202042 86 106 3.0 12.0 0.00 0.00 0.00 27 1009.3
20260504201612 86 90 4.0 10.0 0.00 0.00 0.00 27 1009.3
20260504201026 86 94 1.0 7.0 0.00 0.00 0.00 25 1009.3
20260504200528 86 62 3.0 10.0 0.00 0.00 0.00 26 1009.4
20260504200203 86 86 5.0 10.0 0.00 0.00 0.00 26 1009.5
20260504195522 86 43 1.0 14.0 0.00 0.00 0.00 23 1009.4
20260504195038 85 15 5.0 15.0 0.00 0.00 0.00 24 1009.5
20260504194707 86 10 9.0 15.0 0.00 0.00 0.00 22 1009.6
20260504194034 86 22 9.0 14.0 0.00 0.00 0.00 24 1009.6
20260504193521 85 350 7.0 14.0 0.00 0.00 0.00 24 1009.7
20260504193203 85 323 9.0 12.0 0.00 0.00 0.00 25 1009.7
20260504192528 85 342 5.0 12.0 0.00 0.00 0.00 26 1009.8
20260504192021 85 352 6.0 15.0 0.00 0.00 0.00 27 1009.8
20260504191650 84 11 5.0 15.0 0.00 0.00 0.00 26 1009.9
20260504191036 84 271 3.0 9.0 0.00 0.00 0.00 28 1010.0
20260504190529 83 337 2.0 11.0 0.00 0.00 0.00 28 1010.1
20260504190227 83 352 6.0 11.0 0.00 0.00 0.00 29 1010.1
20260504185540 83 5 4.0 13.0 0.00 0.00 0.00 29 1010.0
20260504185034 83 343 9.0 13.0 0.00 0.00 0.00 28 1010.2
20260504184642 82 31 8.0 13.0 0.00 0.00 0.00 29 1010.2
20260504184035 82 5 6.0 13.0 0.00 0.00 0.00 29 1010.3
20260504183528 82 351 8.0 14.0 0.00 0.00 0.00 29 1010.2
20260504183200 82 10 8.0 13.0 0.00 0.00 0.00 28 1010.2
20260504182521 81 9 6.0 13.0 0.00 0.00 0.00 29 1010.2
20260504182022 81 5 6.0 13.0 0.00 0.00 0.00 28 1010.3